DECAYED

CZ-2D DEB, 43103 (Decayed)

Orbit data source: Space-Track

CZ-2D DEB, 43103 was space debris in LEO originally from a launch on Tue, 09 Jan 2018 UTC launched from the Taiyaun Space Center, China (TSC). Debris objects in space refer to the collection of defunct objects orbiting the Earth. Examples of debris include non-operational satellites, rocket bodies, and fragments generated from explosions, collisions, or faulty payload assembly.

Not visible in the next 10 days
Identifier
43103, 2018-002E
Orbit
Decayed
Last TLE update
10 months ago
Origin
Manufacturer
CALT
Mission
Decayed spacecraft
Bus & Motor
Unknown
Mass
1 kg wet, 1 kg dry
Launch date (UTC)
2018-01-09 (7 years ago)
Launch vehicle
Unknown
Launch site
Taiyaun Space Center, China (TSC)
Object type
Payload
Rocket body
Debris
Shape & HBR
Cone, 0.2 m
Radar Cross Section
0.025 m², Small (<0.1 m²)

Expand to show TLE details & history

TLE from 10 months ago
0 CZ-2D DEB
1 43103U 18002E   24245.76786336  .07967342  25553-5  16616-2 0  9990
2 43103  97.4994 347.3126 0013020 275.3064  84.6744 16.30796191366791
Epoch: 2024-09-01T18:25Z
TLE epoch observation values (Epoch: 2024-09-01T18:25:43.394Z)
Latitude
-0.00007°
Longitude
89.47437°
Altitude
192.854 km
Speed
7.791 km/s
True Right ascension
23h 09m 15s
True Declination
0° 00' 00"
Sunlit
Object was in full shadow at epoch
Visualization orbit readout
Visualization observer readout
Orbital elements
Apogee altitude
195.773 km
Perigee altitude
178.677 km
Semi-major axis
6,565.362 km
Eccentricity
0.0013
Inclination
97.4994°
RAAN
347.3126°
Arg. of periapsis
275.3064°
True anomaly
Unknown
Mean anomaly
84.6744°
Eccentric anomaly
Unknown
Mean motion
4.07995 °/min
Orbital period
88.24 mins
BSTAR
0.0016616
Loading maneuver chart data...
Loading SW <> Apogee altitude chart data...
Loading historical data...
Loading historical data...
Loading historical data...
Loading historical data...
Loading historical data...
Loading historical data...
Loading historical data...

CZ-2D DEB Visibility

Observer location: undefined°, undefined°

This satellite is decayed
Span
Click to sort rows by Start time (UTC) header in descending order
Start Az.
Max El. time (UTC)
Max El. Az.
Max El.
End time (UTC)
End Az.
|